Location: Arboyeti
(42.1122°N, 44.6017°E)
Time: 20:00:11
(UTC+00:00)

Cosmos 2360 Rocket - Pass Details

Date: 19 April 2021
Orbit: 833 x 845 km, 71.0° (Epoch: 17 May)

Event Time Altitude Azimuth Distance (km) Brightness Sun altitude
Rises 16:55:22 0° 327° (NNW) 3,408 6.5 -12.5°
Reaches altitude 10° 16:58:00 10° 319° (NW) 2,468 5.8 -12.9°
Maximum altitude 17:03:04 35° 255° (WSW) 1,325 3.7 -13.7°
Drops below altitude 10° 17:08:07 10° 191° (S) 2,445 4.4 -14.5°
Sets 17:10:43 0° 183° (S) 3,373 5.1 -15.0°
